Theta_e
307 298 295 294 297 298 300 300 298 294 294 293 293 292 292 292 291 291 293 297 297 296 296 296 298 298 300 302 304 305 303 301 301 301 302 303 304 305 305 306 307 307 309 312 311 311 313 316 317 319 321 323 324 325 326 325 325 325 325 324 323 324 324 323 323 322 322 321 321 321 322 322 323 322 323 323 324 325 325 324 324 324 323 323 323 323
305 296 295 298 299 300 300 301 299 297 294 294 294 293 291 292 292 293 294 296 295 296 291 295 296 297 299 301 303 305 304 303 303 302 302 303 304 305 305 306 306 308 308 310 310 311 310 312 314 317 319 318 320 322 324 324 325 325 325 324 325 325 324 324 324 323 322 323 323 322 322 323 323 322 322 322 324 324 325 325 324 324 323 323 323 322
295 294 298 300 301 301 301 301 300 298 295 292 291 291 290 291 292 293 294 296 296 294 292 293 293 296 299 300 302 303 304 305 306 306 305 304 304 305 306 306 306 307 308 309 310 310 311 311 313 314 317 319 321 322 323 325 325 325 325 325 325 325 324 324 324 323 323 323 323 323 323 323 322 324 324 324 323 323 323 324 324 324 324 323 323 323
291 296 300 302 302 300 298 299 299 297 295 292 289 286 289 288 291 287 293 295 295 295 291 291 293 294 298 300 301 302 303 304 305 305 305 305 304 305 306 307 308 307 308 309 310 311 311 311 311 312 314 318 320 320 321 323 323 325 324 325 324 324 324 324 324 322 324 324 323 323 323 321 323 322 322 323 322 322 322 322 323 323 324 323 323 323
295 299 303 301 300 298 296 297 297 296 294 294 291 288 288 287 289 290 289 293 294 295 295 294 292 291 294 296 298 298 300 301 303 303 302 303 303 305 306 305 306 307 309 310 310 311 311 311 310 311 314 316 318 319 320 322 322 324 324 324 325 325 325 325 324 323 324 323 321 322 320 320 319 319 319 319 321 322 321 322 322 323 323 324 323 323
297 300 303 300 299 298 296 294 296 296 293 294 294 292 291 290 290 290 291 292 289 289 293 293 285 288 292 295 297 299 298 299 300 300 301 302 302 301 302 304 305 305 307 308 310 311 312 312 313 311 311 312 315 318 321 322 322 323 324 324 324 324 324 324 324 324 323 322 323 321 320 319 319 319 319 319 320 321 321 321 323 323 323 323 323 323
297 301 301 298 297 296 295 294 296 297 293 292 293 296 294 291 291 291 290 289 283 283 287 294 288 283 286 292 296 297 298 298 299 299 301 301 301 301 301 301 302 304 305 305 306 308 309 310 311 312 312 311 312 315 319 320 321 322 323 323 324 324 324 325 324 324 322 322 322 322 322 321 321 320 321 322 322 322 322 323 322 322 323 323 323 323
300 298 298 299 297 295 294 292 295 297 293 290 297 295 296 293 291 290 290 289 285 288 289 291 291 287 286 290 292 295 296 297 298 298 298 299 300 301 302 303 302 302 303 304 305 307 308 309 310 311 312 311 311 312 313 316 319 320 321 321 322 324 323 324 325 324 323 323 322 322 322 321 321 321 321 321 322 322 321 321 322 322 322 323 323 323
299 296 297 296 296 294 293 295 297 297 293 292 295 297 296 296 295 293 291 288 286 288 284 287 288 285 285 287 292 293 292 293 294 297 298 299 299 300 302 303 303 303 303 304 304 305 306 307 308 309 310 311 310 310 310 312 315 318 320 321 321 322 323 323 323 323 323 323 323 322 322 321 321 322 322 321 319 320 320 320 321 321 322 322 323 323
298 299 300 299 296 293 296 298 297 297 292 295 297 298 297 298 296 295 291 289 288 286 283 287 287 284 285 285 290 290 293 293 294 295 297 299 299 299 299 300 301 302 302 302 303 304 304 305 307 308 309 309 309 310 310 311 312 313 314 317 318 319 322 323 322 322 323 323 322 322 321 321 321 321 321 320 319 318 318 319 320 320 320 321 321 322
300 301 303 300 296 298 299 298 298 298 297 299 298 295 294 294 293 292 290 289 287 284 286 289 287 286 282 286 288 288 290 295 294 294 296 297 299 300 301 302 303 302 302 302 302 303 303 304 305 306 305 306 306 307 308 310 311 312 312 313 313 317 320 321 322 322 322 323 322 322 322 321 321 321 320 319 319 319 316 318 319 320 320 321 321 321
294 296 295 297 302 301 302 297 298 300 299 298 294 293 292 289 290 289 286 287 283 281 288 291 288 288 282 282 288 293 292 295 295 295 296 298 300 301 301 302 303 303 303 303 302 302 302 302 303 303 304 305 306 306 306 307 309 311 312 313 313 313 314 317 320 321 322 322 322 322 322 321 321 321 320 319 319 319 319 319 319 319 319 320 320 320
291 293 296 299 300 299 297 295 295 297 298 296 294 293 287 284 285 281 284 281 281 281 286 289 289 285 286 289 284 288 290 291 294 296 297 298 299 300 301 302 303 303 302 302 302 301 302 303 304 303 304 305 306 308 308 309 309 311 312 313 313 313 313 314 317 319 321 321 321 322 321 321 321 321 321 320 320 320 319 319 319 318 318 319 319 320
287 294 295 296 299 300 297 291 291 290 294 294 291 290 286 282 280 279 282 283 284 286 286 285 289 286 290 292 295 296 294 294 295 296 297 298 298 299 300 301 301 302 301 302 302 303 304 304 304 304 305 307 308 307 308 308 309 311 312 312 313 314 313 312 314 318 319 320 321 321 321 322 321 320 320 321 320 320 320 320 319 319 320 319 320 320
280 282 289 295 291 300 298 296 296 293 294 294 296 293 288 287 282 278 281 278 280 282 284 285 283 278 284 285 295 299 300 300 297 297 298 298 298 299 299 298 298 299 300 300 299 302 303 304 304 305 305 304 304 305 305 306 306 307 307 309 310 310 309 310 311 312 315 318 319 319 320 321 320 320 319 320 320 320 319 319 319 320 320 320 320 321
282 283 289 298 296 300 296 299 300 296 293 295 295 297 290 287 288 283 282 284 283 279 282 283 284 285 288 292 291 292 293 297 299 299 298 298 298 298 297 298 300 301 301 300 300 301 301 301 302 303 304 303 303 303 304 305 305 306 305 304 306 307 307 307 307 309 310 313 314 315 317 319 320 319 319 318 318 319 319 319 319 320 320 320 321 321
283 281 287 292 297 297 298 300 299 300 286 292 292 287 291 296 290 284 284 283 284 282 281 286 285 288 292 294 295 294 293 294 293 295 297 299 300 300 299 299 300 301 299 299 301 302 303 301 301 302 301 302 303 304 304 303 302 304 304 304 305 304 304 305 305 306 307 307 308 309 311 314 316 318 318 319 319 319 319 319 319 319 320 320 320 320
281 281 287 289 289 295 299 300 300 300 298 295 288 292 295 295 293 287 282 283 280 278 282 287 284 285 284 282 290 295 293 294 294 294 294 295 296 297 300 301 301 299 299 300 300 300 299 299 299 299 300 300 301 301 301 301 300 300 301 301 303 302 304 304 303 304 305 305 305 306 308 310 314 317 318 319 319 319 317 317 318 317 317 317 318 319
286 279 281 289 291 292 295 297 294 299 296 293 291 298 292 284 284 284 285 278 278 279 279 282 285 285 286 287 286 288 292 293 294 293 292 294 295 297 298 300 299 299 298 298 298 297 297 297 297 298 298 297 298 298 298 298 298 298 298 298 298 300 300 301 301 301 302 303 305 307 307 307 309 312 315 317 317 316 316 316 316 316 318 317 316 316
286 278 279 287 287 290 292 293 285 291 296 295 294 292 292 290 287 286 286 286 285 280 281 278 283 281 288 289 290 288 288 292 293 293 295 296 297 298 298 298 299 300 298 297 297 296 297 296 296 296 297 297 297 297 297 297 297 297 297 297 297 297 298 298 299 299 300 301 300 302 301 303 304 307 311 312 312 315 314 315 314 315 314 316 316 315
282 283 276 284 289 293 287 291 288 291 288 289 289 288 291 287 291 289 289 286 283 282 282 279 278 280 285 289 291 294 294 292 293 294 294 294 295 295 296 299 298 298 298 297 297 297 297 296 296 296 295 296 295 296 297 297 296 296 296 296 295 296 296 297 297 298 298 299 300 299 301 302 303 304 304 308 309 310 311 311 312 313 314 311 312 313
284 282 279 286 287 287 290 295 291 291 294 292 291 289 290 287 286 284 281 289 285 285 279 281 280 282 286 291 295 295 297 297 294 293 295 295 295 294 295 296 297 297 297 296 296 297 296 296 296 295 296 296 296 296 295 296 296 295 295 294 294 295 296 295 297 296 297 297 297 299 300 301 301 302 303 304 305 306 306 306 307 308 307 309 312 309
287 283 284 284 285 288 287 289 289 283 288 294 294 290 292 289 288 286 282 283 286 286 284 279 279 280 288 289 290 291 292 292 292 292 293 293 293 294 294 295 294 295 296 297 297 297 296 296 296 295 296 295 295 294 293 293 294 294 293 294 293 294 294 294 294 295 295 297 298 298 299 299 300 300 301 302 302 302 302 303 304 303 305 306 306 305
294 277 280 280 283 284 286 286 284 283 288 290 291 289 290 287 288 288 285 286 286 285 285 284 280 283 290 289 289 288 289 290 291 290 293 293 294 294 294 294 294 294 295 295 296 296 295 294 294 296 296 296 295 293 293 293 292 292 292 292 293 293 293 294 294 295 296 296 296 296 297 297 297 297 297 298 298 298 299 300 300 301 303 303 302 305
287 282 284 277 276 279 284 284 286 285 285 286 290 291 292 292 292 286 285 283 283 284 284 284 279 285 290 290 289 289 291 292 292 293 292 294 293 294 294 294 294 294 294 294 295 294 294 294 294 295 294 294 294 293 293 293 292 291 291 291 292 293 292 293 293 294 294 294 294 294 295 295 295 295 295 295 295 295 296 296 296 298 299 300 302 302
287 282 285 279 276 275 274 276 278 282 284 286 285 291 291 291 289 288 285 285 283 286 285 282 284 289 290 289 290 290 289 291 291 292 293 293 293 295 294 294 294 294 294 292 292 293 293 292 292 292 292 293 293 293 293 292 292 292 292 292 291 292 292 291 291 292 292 292 293 292 292 292 292 292 292 292 293 293 293 294 294 295 295 296 298 297
280 280 283 285 282 281 283 281 285 287 285 280 283 289 290 291 292 291 287 285 282 286 284 286 287 287 287 289 289 290 288 291 292 292 293 294 294 293 293 293 293 293 293 293 292 292 290 289 291 291 291 291 291 290 291 291 291 291 291 292 292 291 291 291 290 290 290 290 290 291 290 290 290 290 290 290 290 291 292 292 290 292 292 290 291 292
276 282 282 283 285 285 284 282 284 287 284 285 286 287 290 290 290 288 286 284 290 287 282 287 287 286 288 288 288 288 289 290 290 290 292 292 292 293 293 291 293 292 291 291 290 291 291 290 289 289 289 289 290 290 290 290 290 290 290 291 290 290 291 292 290 290 290 290 290 290 289 289 287 289 290 290 291 292 291 291 291 290 289 289 291 290
281 283 284 284 284 286 281 283 283 283 283 285 286 286 287 289 288 287 287 289 289 285 283 289 287 286 290 289 290 290 290 291 291 291 292 292 292 291 290 292 292 292 291 291 291 290 290 290 289 289 289 288 287 287 287 287 288 288 288 288 289 290 290 289 290 290 290 290 290 289 288 288 289 290 290 290 290 290 290 290 289 289 289 289 289 290
284 284 280 284 283 283 279 282 282 280 279 279 282 285 288 287 288 288 288 289 288 288 288 284 285 288 291 288 291 292 292 292 292 291 290 292 293 292 290 292 293 293 292 292 292 291 290 290 289 289 289 286 287 286 287 287 288 287 288 288 288 289 288 288 289 289 290 290 289 289 289 288 288 288 289 290 290 288 288 288 288 288 289 289 288 288
285 279 285 279 280 278 279 281 282 281 280 280 279 280 281 282 284 285 287 286 282 283 283 283 284 286 291 291 291 292 293 294 294 292 294 295 294 293 293 293 293 294 294 294 292 291 291 290 288 287 287 287 286 286 287 288 287 287 286 286 286 288 287 286 288 288 288 288 287 288 288 289 289 288 289 288 288 287 287 288 287 287 287 287 287 287
284 278 278 278 278 273 276 280 279 278 279 279 279 277 278 280 278 279 282 283 284 281 283 283 283 285 291 291 291 291 291 292 293 294 295 297 298 295 294 293 294 295 296 295 294 292 290 289 289 287 286 285 285 285 286 286 286 286 286 285 285 285 285 286 286 287 286 286 286 287 288 288 288 288 288 288 288 287 286 286 286 287 286 287 287 287
283 281 280 277 277 275 275 279 278 275 274 275 279 281 283 284 285 284 286 285 287 287 282 282 284 290 291 290 291 292 293 293 293 294 295 296 297 296 295 295 295 296 296 295 293 292 292 290 290 289 287 285 286 286 286 285 285 286 286 285 285 284 285 285 285 285 285 285 285 286 286 286 287 287 287 287 287 287 287 287 287 287 287 287 286 285
282 284 280 279 278 273 273 275 275 274 273 275 287 288 287 286 286 284 284 285 286 288 286 288 290 290 288 288 291 292 292 292 294 296 298 298 298 294 292 293 293 294 295 294 293 292 291 289 289 289 289 288 288 287 287 285 285 285 284 283 283 284 283 283 283 283 284 284 285 284 284 285 285 285 285 285 285 286 286 286 287 286 286 286 286 286
282 280 277 274 275 272 272 275 275 272 274 286 284 286 288 289 288 286 287 288 288 288 288 288 287 288 289 290 291 292 294 293 290 292 294 295 294 293 293 295 296 294 294 294 292 290 289 289 288 287 287 287 287 285 284 285 283 283 283 283 283 282 283 282 283 284 284 284 284 284 284 284 284 285 285 285 284 284 285 285 285 285 285 286 286 287
280 281 277 273 273 275 275 278 272 273 282 281 280 284 286 288 287 286 285 287 288 288 288 288 290 290 291 291 292 293 292 288 286 289 292 293 295 296 296 296 295 295 295 295 293 291 288 287 287 286 286 285 284 284 284 284 284 284 283 282 283 282 282 282 283 283 283 284 284 284 284 284 284 283 283 284 284 284 285 285 284 285 284 284 285 285
282 279 280 277 278 275 276 277 275 278 278 279 281 281 285 284 283 283 280 284 288 288 288 289 290 291 292 292 293 292 284 286 287 289 290 291 293 294 296 297 297 296 296 294 293 290 289 288 287 286 285 284 284 285 285 284 284 284 284 284 282 283 283 283 283 283 284 284 284 284 283 282 283 283 282 282 283 283 283 284 285 285 284 284 285 285
285 283 279 279 275 276 271 272 273 272 269 276 282 283 286 287 287 286 284 280 283 288 290 289 289 290 290 292 292 288 285 287 285 289 293 291 290 293 292 292 291 292 290 288 286 287 287 286 285 284 284 283 283 284 283 282 283 283 284 283 283 284 284 284 284 283 283 284 285 285 284 283 282 283 283 282 282 283 282 283 283 283 283 283 283 283
282 282 281 280 276 275 271 271 272 270 274 281 280 283 285 287 287 286 281 279 286 288 289 290 289 290 290 290 289 286 286 283 285 289 293 288 289 290 290 287 287 286 287 288 288 287 286 285 284 283 282 282 283 282 281 281 282 283 282 281 281 282 282 283 283 284 283 283 283 283 284 284 284 283 283 284 284 284 284 284 283 283 282 283 283 284
282 279 279 276 274 275 275 272 270 269 274 277 282 282 283 286 289 284 271 274 287 286 287 288 289 289 290 290 289 286 285 284 285 291 288 290 290 286 287 286 286 285 285 285 285 286 285 283 283 282 282 282 282 281 281 281 282 281 281 281 280 281 282 282 282 281 282 282 281 282 283 283 283 283 284 284 285 285 284 283 284 284 284 284 284 284
281 279 280 278 278 279 279 276 276 277 282 280 280 282 283 289 286 276 271 281 283 287 289 289 289 290 290 289 287 285 288 291 293 288 284 284 284 283 282 283 284 284 284 284 284 284 284 283 283 282 281 281 281 281 280 281 282 281 280 279 280 281 282 282 281 281 281 282 282 282 283 283 283 283 284 284 284 284 284 284 284 284 284 284 284 284
282 282 281 279 278 277 278 276 277 279 283 283 282 286 287 285 273 275 285 282 284 283 283 288 289 290 290 289 288 289 292 287 282 282 283 284 285 283 283 283 283 283 283 283 283 283 282 282 281 281 281 280 281 280 281 282 282 281 280 280 281 283 282 281 281 281 282 282 283 283 283 284 284 284 284 284 283 284 284 285 285 285 284 284 284 284
282 279 278 278 281 280 278 276 274 271 279 286 285 284 286 281 280 284 283 284 282 282 284 285 288 289 288 288 287 289 284 281 282 282 282 282 282 283 282 283 283 283 283 282 282 282 283 282 281 281 281 281 280 281 282 284 283 283 282 282 283 283 282 282 282 282 282 283 283 283 283 284 284 284 285 284 284 283 283 283 284 284 284 284 284 284
287 279 279 280 283 276 277 275 275 281 284 285 288 283 283 287 281 283 286 288 282 280 282 283 285 285 283 286 284 281 280 281 280 281 281 281 281 281 281 282 282 281 281 282 283 283 283 283 282 282 281 280 280 281 282 284 283 282 282 283 283 283 283 283 282 282 282 281 281 282 282 281 281 282 282 283 283 282 281 282 282 283 283 282 281 282
285 281 282 278 284 279 278 281 286 284 285 284 285 284 287 290 285 282 285 286 285 283 280 283 287 283 281 283 282 282 280 281 282 282 283 282 282 282 282 282 282 282 282 282 282 283 283 283 283 283 282 282 281 282 282 283 283 282 282 282 282 282 282 282 281 281 281 281 281 281 281 280 278 280 279 281 280 280 282 281 281 282 283 283 283 283
281 285 280 283 280 284 283 284 282 280 282 283 283 283 284 283 282 282 284 284 283 282 282 285 282 281 282 283 283 280 282 281 281 281 281 282 282 281 281 281 282 282 282 282 282 282 283 283 283 282 282 282 282 282 282 281 282 282 282 282 281 281 281 279 277 277 277 277 278 278 278 277 277 276 277 278 279 279 280 280 280 280 281 281 282 282
277 278 280 278 278 281 277 281 283 285 281 280 281 282 282 281 282 282 282 283 282 281 282 282 283 283 283 283 284 283 281 281 281 281 281 281 281 281 281 281 282 282 282 283 283 282 282 282 282 282 282 282 281 281 281 281 280 281 281 281 280 278 277 277 277 276 275 277 277 278 277 276 277 279 278 275 277 279 278 280 280 279 280 279 280 281
279 280 281 279 278 281 278 280 279 278 280 280 282 284 284 283 282 281 281 282 280 280 281 281 282 281 281 281 282 282 281 280 281 281 281 281 281 280 280 281 281 282 283 283 282 283 283 282 282 281 282 282 282 281 281 281 280 279 278 276 275 274 274 275 276 276 275 277 276 277 277 277 279 280 278 279 279 279 279 279 279 280 280 280 279 279
280 284 277 279 280 280 279 279 279 282 281 282 281 281 281 283 282 280 280 280 279 280 280 280 281 281 281 281 281 282 281 279 279 280 280 280 279 280 280 280 280 281 282 281 281 282 283 282 282 282 281 282 281 280 280 279 277 276 275 275 274 274 274 275 276 275 274 274 275 275 276 278 277 278 278 278 278 279 279 280 280 280 281 281 281 282
281 280 278 279 276 277 281 281 280 278 277 281 281 284 282 281 281 280 279 279 280 280 280 281 279 278 279 279 280 280 280 279 278 279 279 279 279 279 280 280 280 280 281 281 281 281 281 282 282 280 281 281 280 279 278 277 277 276 274 275 274 273 274 274 274 273 274 274 274 274 275 276 276 275 277 277 277 278 278 281 282 282 281 281 282 284
282 280 279 278 278 278 280 280 283 286 283 283 284 283 282 282 282 281 281 281 280 280 281 281 279 279 278 277 278 280 279 280 279 279 279 279 280 280 281 281 281 280 281 280 281 280 281 280 279 279 278 279 278 278 278 278 277 277 276 274 274 273 273 273 274 273 274 274 273 276 276 276 275 276 276 276 276 276 277 278 280 283 285 285 283 284
Wind_Speed
5 11 14 16 16 16 16 14 9 3 5 5 3 3 8 7 4 2 4 4 5 5 10 10 12 13 13 13 13 11 6 4 5 5 5 6 7 8 8 9 10 10 12 10 8 8 9 10 11 11 9 10 10 10 10 11 12 13 14 13 15 13 12 10 10 9 10 11 9 8 11 13 11 11 10 9 10 10 11 10 11 11 10 10 11 10
5 12 14 18 20 18 16 10 7 4 1 9 10 9 8 8 11 6 7 5 3 6 4 6 9 13 12 10 11 11 9 11 9 9 7 7 8 8 8 9 9 10 4 6 6 7 7 8 9 7 7 7 9 11 10 12 15 15 14 13 15 10 11 12 12 12 11 12 13 13 14 13 10 10 11 12 11 12 10 10 10 10 10 11 10 10
10 16 18 19 14 12 11 11 8 10 4 2 5 7 7 8 1 2 3 4 3 4 8 3 6 10 11 12 10 11 13 11 12 11 10 10 10 9 8 9 9 7 9 8 8 8 7 9 9 8 9 9 13 14 14 16 14 12 12 13 11 10 10 11 11 10 12 11 10 10 8 7 7 6 7 8 7 6 8 8 9 9 9 10 10 11
12 14 18 12 9 11 10 11 10 6 4 5 1 4 10 4 8 6 5 1 4 5 3 4 11 11 9 10 12 11 10 10 10 11 11 9 11 11 11 10 10 10 10 12 12 12 10 8 8 7 9 12 10 10 9 11 12 11 11 11 10 10 10 10 11 12 12 8 5 6 4 2 6 5 3 5 6 5 6 9 9 9 10 11 12 11
15 5 6 5 8 11 11 9 10 8 10 7 5 4 4 3 6 7 4 5 4 6 3 1 7 7 6 10 9 5 7 8 9 8 8 8 7 8 8 7 7 10 11 13 13 12 11 9 9 11 12 11 10 11 12 12 11 9 12 13 13 12 12 12 12 13 10 7 5 5 3 1 2 2 3 4 7 8 8 9 9 13 11 11 11 11
14 2 12 14 14 12 10 11 12 11 10 9 8 9 6 5 5 2 1 2 3 7 5 8 5 12 6 12 16 7 5 10 7 8 10 11 9 7 9 11 10 10 9 12 13 13 13 13 13 11 10 9 10 11 12 10 9 10 11 11 11 9 9 11 11 12 10 10 10 8 8 9 8 9 8 11 12 10 11 13 10 8 10 11 11 11
10 4 12 11 10 12 13 12 14 15 12 11 12 11 8 6 6 4 5 2 3 7 4 5 12 10 1 9 11 8 9 12 6 11 11 10 9 8 9 10 11 11 11 9 11 12 13 14 13 13 12 10 10 11 9 6 8 10 10 9 11 11 11 11 10 10 10 10 9 12 13 13 13 13 12 9 7 8 9 7 8 8 8 10 11 11
4 11 11 11 13 14 12 13 12 17 13 14 7 6 6 7 7 6 6 5 5 1 4 1 6 11 9 8 5 7 10 11 11 11 8 8 8 10 12 12 11 12 13 13 14 15 16 16 14 15 15 11 12 11 8 8 8 10 11 10 11 11 11 10 10 10 11 12 12 12 12 12 12 12 14 10 9 7 7 8 10 8 8 9 11 11
11 12 14 15 13 12 15 15 12 16 14 10 6 10 12 13 9 4 5 6 3 2 7 3 1 4 9 5 5 7 7 9 11 11 10 10 12 13 14 15 14 15 15 15 16 17 18 16 14 13 13 11 10 8 8 10 11 11 11 11 10 10 10 10 10 11 12 12 13 13 12 12 11 12 11 8 6 7 7 8 7 8 8 9 9 11
2 6 13 16 12 13 11 12 7 15 14 5 9 7 5 3 4 4 3 3 2 2 11 9 4 7 13 3 8 4 9 13 10 11 13 14 14 13 13 14 17 16 12 12 16 18 13 10 12 13 13 11 10 9 8 9 8 7 7 8 9 11 10 10 10 11 12 13 12 11 12 13 12 10 10 7 8 7 6 8 9 7 8 8 8 9
1 1 2 5 11 11 12 10 12 16 8 6 6 7 5 4 6 2 1 1 2 11 13 10 6 6 13 7 10 9 10 12 7 6 7 6 9 12 15 16 15 12 13 13 14 14 14 11 10 11 11 13 8 6 7 8 7 7 8 9 10 13 11 10 11 11 13 13 12 12 13 14 15 13 10 9 10 7 6 9 9 8 9 8 9 8
1 2 2 3 2 1 3 4 4 7 6 10 4 5 6 1 3 4 1 2 7 11 13 9 8 7 14 3 6 7 4 10 12 11 12 14 16 17 14 13 15 16 15 15 13 13 10 8 11 8 10 9 9 7 6 6 5 6 7 7 10 10 10 8 9 9 12 11 12 12 13 14 14 12 10 12 13 11 11 10 10 7 6 7 7 7
10 8 3 4 3 8 9 10 5 5 4 7 7 8 12 4 5 8 5 10 10 15 6 6 7 5 18 14 3 4 7 5 7 9 13 15 16 15 14 16 16 12 10 12 12 8 6 10 13 9 10 7 7 9 8 7 5 6 6 7 9 11 9 9 8 10 12 10 11 12 12 12 11 11 12 12 11 9 9 9 9 7 8 7 7 8
6 5 5 3 2 4 6 13 7 7 11 13 13 11 12 9 8 10 10 5 6 7 3 4 8 14 8 9 8 14 8 10 10 11 10 11 12 13 14 13 11 10 10 11 8 6 8 8 6 5 6 7 6 5 4 4 3 4 4 5 7 10 3 3 5 7 8 9 10 9 10 11 9 9 9 9 10 9 8 8 9 9 9 9 10 9
8 12 11 8 7 7 8 11 14 11 15 16 8 13 10 9 6 12 8 13 11 7 4 4 4 6 10 6 11 15 17 16 9 9 9 10 11 12 10 6 6 8 10 9 4 5 5 5 4 5 4 3 3 2 3 4 4 4 4 3 1 4 3 1 4 4 5 6 6 6 7 7 5 7 8 9 9 9 9 8 8 9 8 9 9 9
15 9 2 18 4 10 10 3 2 5 5 8 6 6 9 12 1 8 2 5 4 4 4 5 8 5 8 2 3 4 4 7 12 13 9 9 10 9 8 9 9 8 6 2 3 3 2 1 0 2 4 4 4 4 4 5 4 6 4 3 2 1 2 2 2 2 3 4 4 5 6 8 7 7 7 7 7 7 7 7 8 10 9 8 8 7
4 12 2 5 12 9 14 11 4 11 11 8 4 12 11 2 1 3 4 1 4 3 7 3 6 8 5 9 7 1 3 6 5 8 11 14 15 12 9 11 11 7 2 1 1 3 1 3 5 4 4 4 4 5 5 4 4 4 4 4 3 2 1 1 1 2 2 3 3 4 4 5 6 7 8 9 9 9 8 8 9 9 8 7 6 6
11 7 0 5 11 7 7 9 6 7 2 6 11 9 4 2 5 3 5 2 4 5 5 10 13 8 5 10 4 8 6 11 6 9 7 5 6 8 12 13 12 5 1 1 2 3 4 3 4 5 5 5 5 5 6 6 4 4 5 5 5 5 5 4 2 1 0 1 2 3 4 5 6 7 8 8 9 8 7 7 7 5 6 6 7 7
5 6 2 6 11 6 3 7 4 6 2 1 6 2 12 1 7 0 2 7 5 8 4 6 12 11 11 12 1 5 11 11 10 6 5 7 7 9 11 8 2 1 3 3 3 3 4 5 5 5 5 4 5 5 5 4 6 7 7 6 5 4 3 3 3 3 3 2 2 2 3 4 4 4 5 6 6 5 6 7 6 6 7 5 5 6
2 6 2 1 3 4 5 8 15 11 8 5 3 4 1 1 5 11 9 1 4 7 6 4 7 9 10 8 7 4 6 8 8 8 9 11 10 9 6 2 3 3 3 3 4 4 4 4 5 6 6 7 6 6 6 6 7 9 6 6 6 5 5 6 7 6 5 4 3 3 2 2 2 3 4 4 4 5 4 5 4 5 5 7 6 5
1 2 6 1 1 8 10 7 15 15 12 6 5 4 2 2 1 2 1 8 5 6 9 7 8 5 7 6 8 11 9 8 11 11 6 6 7 3 2 1 5 4 4 3 3 4 4 5 5 5 5 5 5 5 6 7 7 5 6 6 5 5 6 6 5 4 4 4 4 3 4 4 4 4 2 1 1 3 4 4 4 5 6 4 4 5
2 2 9 2 5 9 5 7 7 10 10 11 10 10 10 7 5 8 6 3 2 6 4 7 12 0 3 2 9 14 14 12 5 3 7 7 1 1 2 3 5 6 3 4 4 4 5 5 5 4 5 5 7 7 8 6 6 7 6 4 5 5 5 4 5 4 4 3 3 4 4 4 4 4 5 5 6 4 4 3 3 3 3 4 4 3
5 3 4 6 5 9 3 2 1 2 3 11 12 11 10 6 3 6 11 5 1 5 2 1 1 7 3 4 4 3 2 3 5 4 5 0 3 4 4 4 4 4 4 4 5 4 4 4 4 5 6 6 6 5 5 5 6 5 4 5 4 4 4 3 3 3 3 4 5 5 4 5 6 5 5 6 5 5 5 5 4 4 2 2 3 2
4 2 4 1 1 2 2 3 2 3 2 2 4 3 7 9 9 6 3 2 9 4 7 3 4 2 3 4 4 3 0 1 1 3 6 3 4 4 5 5 5 5 5 4 4 4 3 4 4 5 5 6 5 5 5 4 4 4 4 4 4 6 6 5 4 4 5 5 7 5 7 7 5 7 6 6 4 5 4 4 4 4 4 4 4 5
8 4 6 3 1 1 3 3 2 2 1 2 6 8 9 8 10 1 2 2 1 6 5 8 10 3 2 4 3 2 2 4 3 2 4 8 4 4 5 5 5 5 5 5 5 4 4 4 5 4 4 4 4 4 5 5 4 4 4 4 5 4 4 5 5 5 5 5 7 8 8 7 7 7 7 6 5 5 5 5 4 5 5 5 5 5
6 3 10 11 13 11 11 10 7 7 8 4 1 9 9 13 13 8 12 6 9 6 8 4 5 4 2 2 1 1 2 4 2 1 0 1 4 5 5 5 5 5 5 4 4 4 4 3 3 4 3 3 3 4 5 4 4 4 4 5 4 5 6 7 6 5 6 6 8 7 8 7 7 7 6 6 5 5 4 5 5 5 5 5 5 4
4 2 5 10 10 11 9 0 2 8 5 2 1 10 12 12 12 13 4 7 10 4 9 8 9 5 3 3 1 1 0 7 5 1 2 2 1 0 2 3 3 4 5 5 5 4 3 4 4 3 3 3 3 4 4 4 4 4 4 5 5 4 5 5 5 6 6 6 7 7 7 7 6 6 5 6 6 5 5 5 4 5 5 4 4 5
3 7 7 10 15 9 4 5 4 7 8 8 10 9 9 9 7 9 12 10 6 7 13 4 6 7 12 5 5 3 2 1 3 4 2 1 1 2 2 3 5 4 3 3 4 4 5 4 3 3 2 2 3 3 3 2 3 4 4 5 4 4 5 5 6 6 6 6 7 7 7 6 5 5 6 6 6 7 6 6 6 5 4 5 6 6
7 10 11 12 15 13 4 5 4 3 6 8 11 10 13 13 13 15 13 13 8 10 12 8 7 11 14 6 8 9 8 9 7 6 5 3 2 2 5 5 5 5 4 4 4 4 5 5 4 3 2 2 2 3 3 3 3 3 4 4 4 5 5 4 5 6 6 6 7 6 5 5 5 5 6 6 7 7 8 8 7 6 6 6 6 6
5 9 7 9 13 9 4 5 1 4 1 1 7 9 11 12 14 14 13 12 12 10 8 4 6 12 8 3 10 9 8 7 5 4 1 2 3 4 3 5 6 6 6 7 7 7 6 7 7 6 5 4 4 3 3 3 4 3 3 4 4 5 4 4 5 5 5 6 5 4 4 5 5 6 5 7 7 6 5 6 7 7 7 7 6 6
5 3 8 5 8 7 6 3 0 3 3 3 1 2 4 6 6 9 9 9 1 5 5 4 4 10 6 5 5 3 3 3 2 5 6 7 5 6 6 7 7 8 9 8 8 8 7 6 5 5 4 4 4 3 2 1 1 1 2 3 4 4 3 4 5 5 5 5 4 4 4 4 5 5 7 6 5 5 5 5 5 5 6 6 6 6
3 2 1 5 7 3 2 6 6 0 2 6 8 2 5 5 5 4 7 7 8 9 7 3 5 9 12 5 4 4 4 5 6 6 5 6 8 7 8 7 9 10 11 11 8 5 5 5 5 5 4 4 3 2 3 2 0 1 1 2 4 4 4 5 5 5 5 4 4 4 4 4 4 6 5 5 6 5 5 4 4 5 5 5 7 6
4 4 4 4 7 5 2 6 6 6 2 4 9 9 12 9 8 5 6 6 10 9 7 9 11 15 6 6 8 12 13 12 8 8 8 9 9 9 11 11 10 10 9 6 6 6 6 7 7 6 4 3 3 2 1 2 1 1 1 3 2 4 5 5 4 4 4 4 4 5 5 4 5 5 5 5 4 4 4 5 5 6 7 7 5 4
5 8 5 3 6 1 2 5 3 4 10 10 7 15 16 15 13 13 9 9 10 11 7 12 13 8 3 6 11 15 10 10 15 16 14 12 11 7 4 5 7 9 8 7 7 8 7 6 6 6 5 4 3 2 1 2 3 1 1 3 4 6 4 4 4 4 4 4 4 4 4 4 4 4 4 3 3 4 4 4 5 4 4 4 4 5
9 5 6 2 4 3 2 6 3 10 10 6 3 3 9 12 10 12 13 13 10 11 8 7 6 7 10 10 13 17 17 9 3 6 9 9 6 5 7 10 12 10 10 9 6 5 7 9 7 6 5 4 4 2 3 2 2 4 4 4 5 4 4 4 4 4 4 4 4 4 4 4 4 4 4 4 4 4 4 3 3 3 3 4 4 5
9 10 5 2 4 4 4 6 6 4 2 4 4 5 6 7 8 8 14 16 14 12 11 11 12 13 14 14 14 13 7 1 4 6 8 8 10 12 12 12 11 10 10 9 10 10 11 11 11 9 7 4 4 4 4 3 3 5 4 4 5 4 4 4 5 4 4 5 5 5 5 5 4 4 4 5 5 5 6 5 5 5 4 3 3 2
8 3 4 4 1 6 3 4 5 4 8 6 3 5 9 11 9 13 12 15 12 9 10 13 17 17 15 15 15 8 5 3 1 6 7 10 11 11 14 13 11 10 11 9 11 13 11 10 10 8 6 5 5 5 4 3 4 5 5 5 4 5 4 5 5 5 4 4 4 4 4 3 4 4 3 2 3 4 4 5 7 7 5 6 6 6
9 9 3 7 3 6 5 2 1 1 6 11 9 1 3 3 3 5 5 7 3 9 14 14 16 17 16 15 14 4 3 3 9 11 14 12 9 11 7 6 5 5 5 6 5 7 7 7 7 5 6 5 4 2 2 3 4 5 5 5 4 5 5 6 5 4 4 5 5 5 4 4 4 4 4 4 4 4 4 4 3 3 3 4 5 6
4 3 6 8 3 5 3 5 4 6 12 6 4 3 2 5 11 7 4 9 7 10 12 14 16 16 14 12 13 2 3 5 11 13 12 5 9 9 8 4 2 3 5 10 14 13 10 8 8 7 6 5 5 3 4 5 5 6 5 4 4 4 5 5 4 5 5 6 5 6 6 6 5 5 5 6 6 5 6 6 5 5 3 4 4 5
5 3 4 3 4 3 5 3 6 4 9 3 8 5 5 7 10 7 1 8 16 5 7 10 14 14 12 12 10 6 8 11 11 15 3 9 7 5 7 8 7 7 6 6 5 8 10 9 8 7 6 6 4 3 5 5 6 5 4 4 4 5 5 5 4 3 2 3 4 4 5 5 5 5 5 6 6 6 5 4 5 5 5 5 5 6
4 0 4 10 6 6 8 4 3 6 6 5 5 2 5 7 9 8 10 15 2 10 12 12 12 13 12 11 6 8 10 14 12 4 5 5 7 4 3 4 5 7 11 9 9 8 9 7 8 7 6 4 4 5 4 6 6 5 4 3 4 3 3 4 4 4 5 5 5 5 5 4 4 7 7 5 5 5 5 5 6 7 6 7 7 7
5 3 1 2 6 9 7 4 7 8 8 7 4 11 7 5 2 11 9 1 7 4 4 9 11 13 10 11 9 10 11 5 1 3 4 4 5 6 7 9 10 8 6 6 8 9 9 8 7 6 5 4 5 4 5 6 6 3 3 3 2 1 1 2 3 3 3 4 5 5 6 6 7 5 5 6 6 8 8 6 6 6 6 6 6 8
9 7 7 9 4 3 3 7 1 9 2 9 10 5 5 7 8 5 1 3 0 3 6 7 9 9 7 9 8 9 2 1 2 4 4 4 7 9 9 9 11 12 11 10 9 7 10 9 8 6 5 3 4 4 4 7 5 3 3 2 0 1 1 2 2 3 3 4 5 5 5 6 6 7 6 7 7 7 9 8 7 7 6 6 7 8
7 6 5 7 6 7 9 8 11 5 4 3 13 10 6 12 3 6 5 8 2 2 4 4 6 7 4 5 5 2 3 4 2 4 5 5 5 6 6 7 7 8 8 7 8 9 9 9 7 6 4 3 3 3 3 5 5 3 2 1 1 2 2 3 3 3 4 4 4 5 5 5 5 6 6 6 7 6 7 9 8 8 7 6 6 7
10 8 4 7 7 7 10 13 9 5 4 4 3 2 8 9 2 3 3 3 4 6 4 4 7 5 3 5 5 7 3 5 7 9 10 9 8 9 10 9 9 9 9 9 8 7 8 9 8 7 4 3 3 1 2 2 4 2 1 1 1 2 2 3 3 3 4 4 4 5 5 4 4 5 5 5 4 5 6 6 6 7 7 7 7 7
2 7 1 4 6 6 6 5 0 1 2 2 1 0 1 2 1 3 5 3 5 4 7 7 4 4 4 6 9 3 6 7 8 6 5 7 8 6 7 8 7 7 7 7 6 6 7 7 7 7 7 2 1 1 1 1 2 1 1 1 2 2 2 1 2 3 4 4 4 5 5 5 5 4 4 5 5 5 5 5 6 6 6 6 7 7
2 2 4 5 1 7 9 5 6 8 3 3 2 0 1 3 4 5 4 5 4 4 4 2 6 6 7 7 8 10 6 7 7 6 6 7 8 8 8 9 8 8 9 9 8 6 7 6 7 7 6 5 2 2 2 2 2 2 1 1 1 1 0 1 0 2 4 5 6 6 5 5 6 7 6 4 5 5 5 6 5 5 6 6 6 7
3 3 4 5 5 10 7 1 3 3 3 3 5 4 3 4 2 2 2 1 3 3 4 4 5 4 4 4 5 10 9 6 9 9 7 6 7 6 5 6 7 6 5 7 8 8 7 7 6 6 5 6 5 4 3 2 2 2 1 1 1 1 1 1 1 3 5 6 5 5 5 5 6 6 6 6 6 6 6 5 5 6 7 6 7 7
4 10 6 6 7 5 3 5 4 1 2 2 3 4 4 5 5 2 3 4 4 5 4 3 1 2 4 5 5 9 10 4 4 5 6 5 4 4 4 4 4 5 5 6 6 7 8 6 6 6 6 5 5 4 3 3 2 1 0 0 1 1 1 1 2 3 4 5 5 5 4 4 5 5 6 6 6 6 6 7 7 8 8 7 7 8
5 11 3 5 6 7 12 8 5 2 6 4 5 9 6 4 5 5 4 4 5 7 6 7 4 3 4 4 4 5 8 6 4 5 5 4 4 4 3 3 2 3 3 3 5 4 5 5 6 7 6 4 4 4 3 2 1 0 1 1 0 1 2 2 3 3 4 4 4 4 4 4 5 5 6 6 7 7 8 9 12 11 9 10 9 15
10 7 7 8 9 10 4 4 9 8 5 6 5 5 8 7 8 9 10 10 6 5 7 10 9 5 5 3 3 9 8 8 6 6 6 4 3 2 2 3 4 2 1 3 4 3 4 5 4 5 4 2 2 2 1 1 0 1 0 0 0 1 2 3 4 4 3 3 3 4 5 5 5 5 6 6 6 6 8 10 8 13 18 18 17 16
Wind_Direction
154 178 186 193 203 206 209 210 206 214 181 158 92 147 192 183 227 263 225 214 193 210 228 226 234 238 235 230 229 232 226 222 252 249 231 241 242 243 240 236 235 236 239 242 238 239 235 230 224 221 214 214 215 216 210 206 209 206 203 198 208 207 200 193 193 194 193 199 206 217 218 223 219 218 217 220 220 219 221 217 216 216 217 218 216 216
188 197 208 202 200 194 204 205 213 248 234 164 188 194 204 183 211 203 192 224 200 187 271 215 232 243 245 238 234 234 242 239 232 236 238 241 241 240 240 245 241 236 266 271 273 252 243 241 239 233 224 215 211 223 210 210 213 209 207 205 214 200 199 201 199 198 199 203 200 199 209 212 211 209 208 219 216 218 220 217 216 216 217 218 219 217
205 208 207 210 199 192 193 188 194 216 221 276 194 188 190 225 261 307 276 269 210 161 250 195 231 246 246 244 237 230 228 230 233 229 226 222 235 240 240 243 250 260 259 258 255 257 243 238 236 224 222 220 216 217 205 213 213 211 209 214 213 202 200 206 204 200 211 211 212 208 222 208 228 227 226 233 231 226 225 222 218 217 217 217 221 217
207 220 219 199 184 194 194 185 186 200 249 216 170 149 209 207 165 240 250 252 269 214 254 207 250 253 245 251 241 230 220 233 229 229 232 220 223 230 235 231 236 244 250 252 250 252 250 235 234 227 228 226 222 225 222 223 218 214 213 216 209 207 203 203 205 208 217 213 222 234 249 236 220 219 221 231 232 225 222 229 216 217 214 214 218 215
212 220 171 138 188 198 193 181 182 192 222 232 196 203 190 163 199 165 228 211 242 263 247 328 291 284 225 245 259 234 230 237 239 245 252 258 238 237 251 265 248 245 244 248 252 252 252 249 235 224 223 222 219 221 221 218 213 209 211 212 206 205 203 205 204 206 205 193 202 211 227 293 311 284 220 220 233 218 222 229 217 220 209 213 217 215
234 196 145 186 189 188 189 193 194 185 218 232 232 202 199 189 217 256 257 107 176 254 212 181 270 254 205 219 235 224 209 226 233 227 232 236 240 239 245 247 253 250 243 245 250 249 246 244 244 236 231 227 224 227 227 221 216 213 214 211 208 209 209 210 207 203 193 198 201 191 201 219 225 233 218 221 220 210 217 221 223 222 211 214 217 217
220 188 178 190 171 187 197 206 196 183 208 210 221 200 190 187 213 205 244 119 214 210 268 177 218 264 330 224 223 219 217 224 225 222 227 226 235 242 241 240 241 245 252 246 246 252 252 250 250 251 242 228 225 231 227 214 217 216 218 210 205 207 210 209 206 195 190 202 204 204 207 213 213 222 232 229 228 220 226 226 225 220 212 216 218 221
153 172 186 182 180 187 195 209 199 187 196 225 207 155 158 201 206 209 225 214 238 282 306 233 198 247 260 246 234 223 224 225 228 234 235 239 243 245 247 245 239 240 241 245 242 239 240 243 238 243 243 237 230 227 212 215 215 212 215 207 206 209 210 208 202 192 193 200 204 208 214 217 222 222 234 221 223 220 220 216 224 214 216 214 218 221
182 179 188 184 188 193 204 207 189 188 198 216 181 140 202 203 203 172 184 224 244 290 274 265 45 253 246 263 207 181 230 240 235 233 238 242 240 240 246 249 249 243 238 237 243 243 237 237 242 242 249 242 237 229 210 212 214 210 211 210 210 214 212 212 199 195 198 203 205 207 211 219 226 230 236 233 218 220 210 224 224 217 219 217 218 220
352 194 194 187 187 208 208 206 166 179 207 205 138 187 221 168 192 170 210 188 300 222 241 227 188 230 264 186 197 222 207 225 220 220 232 231 232 234 240 247 245 243 241 241 243 248 249 237 240 241 242 249 237 230 219 222 220 215 212 213 210 217 213 210 202 200 203 205 207 209 214 219 226 225 236 226 229 223 206 224 228 221 221 219 220 221
225 17 339 205 204 205 201 183 179 190 198 118 135 173 200 204 189 159 121 109 341 248 244 227 208 193 270 184 196 177 213 213 203 224 239 244 243 239 233 235 244 254 248 243 245 248 248 239 239 244 242 242 247 239 228 229 222 219 212 213 214 219 216 211 206 198 205 206 205 211 213 216 223 224 223 226 236 227 214 226 229 220 223 216 221 215
342 20 6 246 228 196 90 217 218 177 173 154 163 145 110 325 53 136 8 72 222 250 247 222 202 186 237 246 222 210 208 186 191 207 214 223 230 235 240 246 247 245 247 246 244 247 245 255 248 240 246 245 244 246 241 236 227 222 220 214 221 230 222 217 210 203 211 208 209 214 216 218 223 222 218 223 230 223 222 225 232 226 224 225 221 217
239 221 178 255 307 178 179 189 212 139 187 190 166 145 173 193 148 212 130 205 208 224 247 168 170 247 232 234 207 227 259 261 234 215 208 216 229 236 240 242 244 249 254 255 252 249 249 241 247 240 242 250 249 239 234 231 225 225 225 216 218 235 224 215 204 203 211 207 211 213 218 223 224 223 223 227 232 228 224 225 230 222 223 220 219 218
259 221 202 210 284 231 170 182 156 188 191 194 190 173 179 184 181 207 194 208 221 246 260 183 174 238 280 272 215 249 218 208 214 226 224 217 226 236 239 241 250 258 255 259 261 250 249 260 281 284 258 247 256 268 274 269 247 247 240 228 216 237 246 223 207 213 213 215 217 216 220 224 223 227 227 231 234 231 224 221 225 223 223 222 221 218
216 218 224 178 224 175 200 199 186 185 184 200 189 190 195 192 179 199 184 197 200 214 162 207 110 231 198 250 199 209 228 233 215 222 225 225 230 236 251 282 283 275 266 260 272 266 267 275 263 256 256 292 325 1 41 55 49 59 44 32 340 316 340 302 229 226 230 232 230 228 230 233 225 227 225 231 230 231 225 222 223 226 224 226 227 221
220 243 213 194 200 172 191 224 188 135 169 214 199 186 210 213 134 214 178 179 157 109 143 200 202 189 193 233 289 289 308 258 232 230 226 239 242 242 258 263 263 263 283 320 228 255 267 274 60 94 90 93 91 82 68 56 55 58 49 51 55 6 307 313 318 269 243 246 240 232 228 228 223 225 230 237 233 235 228 226 220 230 225 227 229 228
157 233 176 173 205 175 192 185 188 159 200 177 140 209 213 285 131 67 27 350 91 132 230 146 283 263 314 294 271 197 226 256 251 245 245 246 251 255 250 254 258 258 27 277 226 219 205 85 68 63 58 58 65 67 70 68 69 92 88 73 59 34 6 2 321 282 288 277 276 263 249 242 232 228 227 230 232 229 225 223 226 229 231 230 230 233
180 218 124 140 218 233 205 188 187 196 100 142 212 200 68 65 113 154 194 140 172 183 219 186 223 244 171 261 252 226 222 248 249 239 243 258 259 257 251 245 248 247 232 330 349 32 45 46 64 68 57 47 49 48 42 32 24 39 41 33 24 14 3 338 344 320 245 242 242 250 252 249 239 234 232 230 235 231 226 231 235 239 244 234 227 222
139 246 279 210 192 185 61 113 250 263 313 332 199 34 165 231 236 241 197 218 170 206 232 223 218 234 185 224 68 210 217 232 243 254 268 263 246 242 249 263 41 46 75 87 62 40 46 45 41 54 64 55 58 55 52 41 34 31 26 22 33 8 345 326 343 347 337 357 300 273 269 255 249 246 250 247 245 239 228 235 232 230 236 246 240 232
174 190 278 325 147 149 150 154 215 206 221 212 18 341 261 348 235 188 196 327 170 230 203 268 176 238 201 218 182 232 219 228 242 252 244 241 244 246 271 26 115 88 96 83 75 61 66 67 62 61 62 56 49 48 40 41 38 35 21 27 11 7 13 13 13 360 359 348 344 327 332 339 296 265 242 247 245 248 240 245 240 241 248 241 238 236
154 163 229 285 274 159 195 191 214 204 174 154 170 209 229 178 247 83 215 201 175 204 218 235 247 278 254 201 180 221 222 207 209 220 238 253 260 281 278 145 121 126 119 113 108 103 84 74 65 61 63 65 59 53 48 43 43 33 28 25 19 24 8 9 354 358 350 343 358 20 20 356 4 359 330 291 256 228 244 247 239 238 237 251 246 228
140 189 202 164 182 202 205 193 236 229 181 203 191 201 197 169 164 176 234 131 191 196 216 204 243 286 275 242 210 199 219 227 239 193 238 254 1 75 74 103 126 117 113 106 100 96 87 78 74 68 60 55 57 46 44 33 41 34 30 16 13 17 21 1 355 354 340 348 3 30 11 10 10 12 24 44 26 24 2 339 313 296 303 255 265 241
158 149 138 202 196 195 240 313 163 63 220 207 189 211 188 191 161 186 204 202 119 236 110 157 325 275 249 336 308 252 245 237 245 210 236 119 128 122 105 101 81 91 106 95 92 89 86 83 82 79 74 68 66 61 54 43 44 35 21 18 9 28 5 356 341 350 12 31 37 27 26 30 25 21 34 42 28 29 19 11 13 3 17 336 302 313
38 102 134 287 309 334 307 291 5 26 89 250 240 165 145 184 192 214 226 187 195 166 205 192 233 256 339 344 342 338 310 332 13 173 148 146 131 125 116 110 104 92 80 77 77 75 74 81 73 70 66 65 62 60 57 51 42 32 27 13 13 22 2 7 8 28 47 47 46 35 37 33 19 35 32 40 21 28 12 11 17 10 33 16 19 18
190 218 157 156 332 243 282 331 357 343 30 211 194 197 192 194 198 191 86 63 139 219 176 194 229 204 275 347 335 13 66 53 63 81 136 131 148 131 122 114 111 107 98 90 87 83 70 68 72 75 76 79 80 72 65 58 46 39 30 23 20 14 6 13 2 32 46 55 53 38 36 26 22 30 28 28 23 26 19 18 16 22 24 13 24 15
191 187 180 203 192 190 199 204 196 215 210 207 261 196 195 190 186 149 224 190 240 179 166 177 237 241 280 353 352 358 64 69 12 22 356 110 148 142 130 138 133 124 118 112 102 83 80 78 85 82 81 78 70 78 74 67 63 52 49 42 32 29 23 17 14 17 38 45 59 47 40 28 25 22 15 11 16 17 23 27 30 21 24 21 18 19
178 190 187 213 216 214 222 209 24 77 35 178 270 189 205 207 196 200 206 221 207 125 198 201 207 216 259 233 218 225 289 142 151 134 132 125 94 54 131 115 134 133 139 135 131 131 115 88 86 90 79 85 92 91 92 100 92 80 73 59 45 46 48 33 30 22 34 34 49 49 39 33 26 22 15 7 359 0 16 28 27 36 26 8 33 30
104 213 201 199 229 234 200 170 218 148 175 198 190 206 206 202 187 189 204 220 168 209 241 175 209 231 237 214 203 215 229 225 165 159 160 209 205 154 145 104 96 96 104 118 131 142 135 129 113 104 103 85 81 73 77 79 99 102 98 86 70 62 60 42 43 38 38 39 41 40 29 27 25 27 21 16 12 6 4 9 20 29 28 33 36 27
158 208 207 189 221 222 152 172 172 169 175 183 195 190 196 202 194 202 212 221 192 214 232 213 193 215 243 203 189 196 182 178 181 188 197 183 158 112 113 123 140 153 163 159 176 167 152 151 151 140 113 89 64 73 55 45 34 32 51 64 63 66 56 48 62 52 46 43 46 33 23 20 25 27 30 30 29 22 12 7 4 9 24 33 26 22
148 221 194 187 217 206 231 177 178 146 122 158 199 199 200 194 206 207 219 220 214 223 228 195 180 227 237 202 196 201 202 182 196 196 137 133 198 191 153 155 173 180 184 184 186 189 183 168 164 164 160 158 142 120 94 69 59 35 48 52 53 66 40 69 66 72 58 55 44 31 25 24 22 24 27 32 28 20 12 12 8 11 16 19 18 16
146 243 131 156 203 222 215 257 118 189 154 213 238 112 177 192 194 205 216 231 137 275 291 275 270 269 253 191 230 256 219 242 186 167 179 190 195 200 184 179 185 193 204 207 196 189 184 175 165 157 152 159 147 140 114 96 72 67 84 88 83 70 44 71 76 69 64 55 37 38 43 43 28 24 30 18 20 13 14 9 7 17 18 16 16 15
124 219 52 124 177 262 217 188 214 203 232 223 246 176 150 141 175 211 205 202 171 201 204 193 255 257 253 182 225 243 232 204 210 207 208 220 219 207 204 191 192 204 208 209 200 173 168 164 159 160 172 175 172 152 135 111 57 6 24 54 73 75 74 79 75 73 60 47 34 33 37 41 41 39 25 19 14 5 355 354 8 19 18 16 16 6
151 133 136 158 165 223 250 181 168 141 124 274 231 212 191 197 196 196 216 191 194 174 167 181 226 229 225 143 211 232 223 227 222 214 219 231 231 211 205 204 204 208 213 205 188 176 172 169 169 166 171 180 175 139 145 144 93 59 341 46 31 50 58 65 76 80 68 45 47 32 33 31 38 36 27 15 2 354 356 1 8 14 12 10 349 357
146 153 170 173 173 182 134 132 110 98 217 227 210 201 194 206 204 215 214 197 209 182 199 193 221 232 188 168 214 240 228 210 217 225 222 224 232 221 211 231 222 216 215 208 195 176 168 158 156 163 165 162 165 154 163 150 136 163 70 80 57 61 46 55 39 55 55 52 44 38 34 37 37 34 15 356 353 353 1 9 9 356 353 350 358 11
159 146 155 147 121 157 160 110 136 218 240 227 348 156 192 216 207 216 233 230 215 211 229 238 247 249 231 211 214 232 242 236 197 236 245 241 247 242 207 211 220 215 207 204 188 170 170 163 155 152 158 161 157 146 122 85 135 134 83 75 73 63 71 58 59 44 33 35 26 30 27 30 31 20 4 358 355 353 356 356 339 354 356 3 1 358
167 147 153 63 130 74 92 169 207 220 220 324 283 220 215 203 213 204 244 244 230 213 207 230 241 240 242 239 241 242 264 219 175 223 230 227 212 218 230 232 225 218 221 205 188 180 169 168 163 160 160 170 130 130 127 145 153 104 110 102 92 84 74 73 58 39 28 25 15 15 12 18 14 9 3 356 354 355 349 344 342 340 339 350 343 333
147 112 117 141 213 160 175 191 222 317 335 285 269 226 166 183 184 186 220 247 227 211 191 218 232 239 244 250 252 259 85 113 350 281 253 223 219 218 217 226 227 216 213 203 182 178 171 157 149 157 146 143 138 128 129 145 112 106 91 72 67 72 55 58 51 30 22 22 9 10 7 16 12 358 352 340 344 349 343 341 337 334 342 349 340 343
161 153 227 123 251 121 132 110 333 292 255 248 217 301 197 183 151 166 179 297 283 205 208 211 227 237 239 248 258 255 78 315 287 269 245 228 220 228 239 245 252 222 184 146 128 133 142 142 129 126 126 126 98 77 73 80 88 87 78 65 46 53 42 49 35 15 14 5 0 359 355 357 7 358 354 356 356 338 326 314 304 309 322 328 319 321
21 85 145 151 148 95 118 161 195 192 238 232 124 172 175 134 117 114 118 249 255 211 204 198 220 231 233 238 251 162 190 244 256 254 259 162 211 218 218 227 193 162 157 156 152 149 147 141 132 127 105 99 87 48 66 76 79 77 72 62 50 50 45 31 16 5 2 349 348 352 351 353 358 356 351 349 342 340 336 333 321 307 314 313 308 299
105 91 113 94 165 175 150 146 225 201 253 207 174 185 180 129 111 93 131 264 246 188 172 194 212 224 230 229 225 176 175 227 244 260 218 179 192 176 168 168 156 140 131 124 115 130 130 128 110 97 98 99 102 85 82 80 79 78 77 49 51 47 30 13 349 333 340 347 353 344 345 349 348 343 345 337 331 332 325 313 324 332 332 324 323 321
140 212 171 199 168 160 165 225 293 278 254 158 183 182 126 143 116 151 203 236 142 148 192 187 200 218 220 227 180 197 220 216 238 261 128 128 108 95 93 105 126 136 139 136 131 127 116 110 110 117 118 111 98 86 80 84 81 72 62 55 58 36 2 335 339 346 349 351 353 353 345 343 347 337 332 330 325 315 317 330 334 331 340 336 334 336
178 156 168 136 189 193 195 174 234 273 242 151 211 136 142 105 156 212 231 161 157 208 191 174 193 220 215 217 198 209 230 249 22 116 135 147 142 137 130 127 116 97 86 104 116 113 109 103 98 93 80 75 87 94 98 99 94 97 91 77 74 341 299 325 331 339 351 348 341 341 340 338 335 337 329 327 337 339 330 331 334 330 332 331 335 333
172 160 196 186 174 108 131 206 166 249 281 172 147 106 173 164 232 204 269 287 155 188 161 206 203 223 197 224 215 222 215 57 142 144 147 132 136 143 143 139 133 132 132 123 107 109 114 110 109 108 114 93 91 100 112 110 111 108 91 70 31 278 312 321 348 357 354 347 342 339 334 330 331 329 334 330 332 334 323 321 330 325 331 334 332 330
151 176 195 206 169 174 177 192 209 221 100 164 139 178 210 214 192 183 167 254 222 160 196 199 232 226 203 201 187 152 161 128 112 134 114 121 118 109 108 112 110 112 106 103 115 120 109 111 111 110 93 72 68 92 115 113 121 114 83 357 282 345 344 350 357 8 356 345 333 330 323 320 320 317 319 318 319 323 316 316 321 321 321 325 323 320
204 199 163 171 170 171 203 214 220 95 143 174 175 177 208 223 217 189 215 231 192 242 180 176 229 230 182 152 149 152 148 200 169 172 154 158 151 143 139 138 132 127 126 125 127 120 118 127 129 122 103 81 92 84 94 94 111 113 96 274 45 337 344 342 4 4 339 323 314 309 299 304 300 294 292 291 295 297 298 302 308 313 311 321 314 309
257 193 120 126 228 239 284 241 53 34 194 264 302 254 221 282 310 167 191 220 247 210 181 185 200 178 171 157 132 196 179 169 154 158 145 142 140 139 127 126 127 128 123 121 118 130 128 125 123 126 129 125 123 116 130 107 118 120 237 341 12 357 350 1 5 342 306 302 297 293 297 307 297 288 283 283 281 268 268 271 284 284 288 298 293 294
256 143 134 181 227 148 247 270 215 234 194 223 232 277 204 192 214 189 207 217 225 168 174 185 179 188 178 177 166 161 160 162 149 144 142 142 140 145 146 142 146 143 140 139 150 127 122 126 130 136 142 148 204 184 201 195 213 228 278 331 32 44 59 38 14 301 303 299 298 299 306 305 307 309 307 296 290 286 279 278 278 277 280 276 279 278
263 188 166 197 166 185 229 234 264 259 233 225 185 159 198 222 219 209 209 214 152 148 149 164 141 146 155 164 170 144 152 159 151 151 153 150 147 145 148 150 147 143 143 136 143 145 138 140 141 150 151 159 184 193 188 197 240 265 304 326 22 79 72 32 325 306 300 293 290 291 291 290 286 292 297 298 298 296 295 280 263 264 258 254 254 266
159 135 215 175 188 251 297 281 288 325 332 272 247 256 229 188 165 125 112 120 131 124 122 110 119 172 164 163 146 142 137 156 130 135 133 134 123 129 144 147 149 148 144 131 152 148 154 153 150 163 166 169 176 179 193 211 228 241 233 312 96 107 44 324 296 276 271 267 266 268 271 274 276 280 283 285 285 269 259 274 277 267 266 235 229 236
108 191 185 112 198 222 213 216 134 222 256 271 231 217 214 189 151 142 129 132 153 145 143 131 89 61 83 87 113 115 122 119 116 114 121 130 148 158 155 124 143 139 132 99 132 151 130 155 150 162 175 182 165 178 197 216 225 171 127 133 137 105 12 312 290 283 280 272 267 267 271 272 272 272 275 279 284 288 283 245 244 252 255 272 241 238
189 182 145 184 186 222 220 210 194 200 222 214 211 211 183 170 154 156 177 179 182 172 161 141 124 101 98 82 112 121 123 130 141 127 116 138 144 163 150 149 138 164 101 142 118 124 139 144 148 131 166 187 136 149 156 154 157 58 17 129 308 8 331 323 317 303 285 279 274 274 277 279 281 274 272 271 275 279 285 299 270 246 254 255 258 257